This is the latest recevied weather packets stored in our database for station/object SV2BZQ-1. If no packets are shown the sender has not sent any weather packets the latest 1 day(s).
| Time | Temp. | Humidity | Pressure | Rain* | Wind** | Luminosity | Snow |
|---|---|---|---|---|---|---|---|
| 1778002775 | 16.67° C | 85% | 1011.6 hPa | 0 mm | 0.89 m/s, 220° | - | - |
| 1778002678 | 16.67° C | 86% | 1011.6 hPa | 0 mm | 0.89 m/s, 258° | - | - |
| 1778002579 | 17.22° C | 86% | 1011.6 hPa | 0 mm | 0.89 m/s, 239° | - | - |
| 1778002475 | 17.22° C | 86% | 1011.6 hPa | 0 mm | 0.89 m/s, 169° | - | - |
| 1778002302 | 17.22° C | 86% | 1011.6 hPa | 0 mm | 0.89 m/s, 234° | - | - |
| 1778002199 | 17.22° C | 87% | 1011.6 hPa | 0 mm | 0.89 m/s, 193° | - | - |
| 1778002111 | 17.22° C | 87% | 1011.3 hPa | 0 mm | 0.89 m/s, 354° | - | - |
| 1778001925 | 17.22° C | 87% | 1011.3 hPa | 0 mm | 0.89 m/s, 356° | - | - |
| 1778001803 | 17.22° C | 87% | 1011.3 hPa | 0 mm | 0.45 m/s, 356° | - | - |
| 1778001678 | 17.22° C | 87% | 1011.3 hPa | 0 mm | 0.45 m/s, 359° | - | - |
| 1778001555 | 17.22° C | 87% | 1011.3 hPa | 0 mm | 0.45 m/s, 352° | - | - |
| 1778001447 | 17.22° C | 87% | 1011.3 hPa | 0 mm | 0.89 m/s, 354° | - | - |
| 1778001324 | 17.78° C | 86% | 1011.3 hPa | 0 mm | 0.89 m/s, 354° | - | - |
| 1778001230 | 17.78° C | 86% | 1011.4 hPa | 0 mm | 0.89 m/s, 356° | - | - |
| 1778001069 | 17.78° C | 86% | 1011.4 hPa | 0 mm | 0.89 m/s, 356° | - | - |
| 1778000948 | 17.78° C | 86% | 1011.4 hPa | 0 mm | 0.89 m/s, 356° | - | - |
| 1778000839 | 17.78° C | 85% | 1011.4 hPa | 0 mm | 1.34 m/s, 356° | - | - |
| 1778000713 | 17.78° C | 85% | 1011.4 hPa | 0 mm | 1.34 m/s, 356° | - | - |
| 1778000579 | 17.78° C | 84% | 1011.4 hPa | 0 mm | 1.79 m/s, 120° | - | - |
| 1778000459 | 18.33° C | 83% | 1011.4 hPa | 0 mm | 1.79 m/s, 117° | - | - |
| 1778000338 | 18.33° C | 82% | 1011.2 hPa | 0 mm | 1.79 m/s, 150° | - | - |
| 1778000231 | 18.33° C | 81% | 1011.2 hPa | 0 mm | 1.79 m/s, 133° | - | - |
| 1778000120 | 18.33° C | 80% | 1011.2 hPa | 0 mm | 2.24 m/s, 134° | - | - |
| 1778000027 | 18.89° C | 79% | 1011.3 hPa | 0 mm | 2.24 m/s, 127° | - | - |
| 1777999856 | 18.89° C | 78% | 1011.3 hPa | 0 mm | 2.68 m/s, 172° | - | - |
* Rain latest hour (hover to see other rain measurements)
** Current wind speed in m/s (hover to see current wind gust speed)